Terug naar catalogus

STARLINK-5348

ActiefCommunicatieVLEO
NORAD 56515·PAYLOAD·🇺🇸 United States

Gelanceerd May 14, 2023 vanaf Cape Canaveral Space Force Station

Loading…

Volgende Passages (komende 24 uur)

TLE

VersSource: CelesTrak SupGP

Epoch: Sep 15, 2026, 01:39 UTC

1 56515C 23065N   26258.06923611 -.00025467  00000+0 -92244-3 0  2586
2 56515  42.9996 222.9137 0000944 256.0120  97.4851 15.27590429    11

Volg STARLINK-5348 in realtime met AllMySat

Download on the App Store